HISTORICAL SENSOR DATA

Sensor Data Report

DB LIVE
CURRENT TIME--:--:--
DEVICE NETWORK Gateway Status
13 ESP · realtime ~1s · history 60s
Weather WS-MOD-01
ONLINE
Actuator ACT-MOD-01
OFFLINE
Mainboard L3 MB-L3-01
ONLINE
Mainboard L5 MB-L5-01
ONLINE
Remote AC AC-REMOTE-01
ONLINE
PZEM L3-01 PWR-L3-01
OFFLINE
PZEM L3-02 PWR-L3-02
OFFLINE
PZEM L3-03 PWR-L3-03
OFFLINE
PZEM L3-04 PWR-L3-04
OFFLINE
PZEM L5-01 PWR-L5-01
ONLINE
PZEM L5-02 PWR-L5-02
ONLINE
PZEM L5-03 PWR-L5-03
OFFLINE
PZEM L5-04 PWR-L5-04
OFFLINE
REPORT FILTER

Periode & Sensor

DATABASE HISTORY
RESET
QUICK RANGE Hari ini 7 hari 30 hari
PERIODE01 Sep 2026sampai 07 Sep 2026
TOTAL DATA86,379sensor readings
MINIMUM-0.50sesuai filter
AVERAGE74.08sesuai filter
MAXIMUM32,564.20sesuai filter
REPORT RESULT

Data Sensor

01/09/2026 — 07/09/2026 EXPORT CSV
NOTANGGALWAKTUDEVICECHANNELSENSORVALUEUNIT
1 07/09/2026 04:34:00 PWR-L5-02Power Meter L5 PZEM 02 PZEM-L5-02-PF PZEM L5-02 Power Factor 0.00
2 07/09/2026 04:34:00 MB-L5-01Mainboard Lantai 5 L5-SHT-03-T SHT20 3 Temperature 28.10 °C
3 07/09/2026 04:34:00 AC-REMOTE-01Remote AC AC-SETPOINT AC Set Temperature 23.00 °C
4 07/09/2026 04:34:00 MB-L5-01Mainboard Lantai 5 L5-BGT-01 Black Globe Temperature 1 26.00 °C
5 07/09/2026 04:34:00 MB-L5-01Mainboard Lantai 5 L5-LUX-03 Illuminance / LUX 3 0.10 lux
6 07/09/2026 04:34:00 AC-REMOTE-01Remote AC AC-POWER AC Power State 1.00 state
7 07/09/2026 04:34:00 MB-L5-01Mainboard Lantai 5 L5-BGT-03 Black Globe Temperature 3 25.80 °C
8 07/09/2026 04:34:00 PWR-L5-01Power Meter L5 PZEM 01 PZEM-L5-01-ENERGY PZEM L5-01 Energy 0.11 kWh
9 07/09/2026 04:34:00 MB-L5-01Mainboard Lantai 5 L5-SHT-03-RH SHT20 3 Humidity 46.80 %RH
10 07/09/2026 04:34:00 MB-L5-01Mainboard Lantai 5 L5-LUX-06 Illuminance / LUX 6 0.10 lux
11 07/09/2026 04:34:00 PWR-L5-02Power Meter L5 PZEM 02 PZEM-L5-02-FREQ PZEM L5-02 Frequency 50.00 Hz
12 07/09/2026 04:34:00 MB-L5-01Mainboard Lantai 5 L5-HFT-01 Heat Flow Temperature 1 22.40 °C
13 07/09/2026 04:34:00 MB-L3-01Mainboard Lantai 3 L3-SHT-02-RH SHT20 2 Humidity 46.40 %RH
14 07/09/2026 04:34:00 MB-L5-01Mainboard Lantai 5 L5-LUX-02 Illuminance / LUX 2 0.10 lux
15 07/09/2026 04:34:00 WS-MOD-01Weather Station Module WS-DIR Arah Angin 70.80 °
16 07/09/2026 04:34:00 MB-L5-01Mainboard Lantai 5 L5-ST-01 Surface Temperature 1 22.60 °C
17 07/09/2026 04:34:00 PWR-L5-01Power Meter L5 PZEM 01 PZEM-L5-01-VOLT PZEM L5-01 Voltage 226.30 V
18 07/09/2026 04:34:00 MB-L3-01Mainboard Lantai 3 L3-LUX-06 Illuminance / LUX 6 0.30 lux
19 07/09/2026 04:34:00 PWR-L5-02Power Meter L5 PZEM 02 PZEM-L5-02-ENERGY PZEM L5-02 Energy 0.04 kWh
20 07/09/2026 04:34:00 MB-L3-01Mainboard Lantai 3 L3-LUX-01 Illuminance / LUX 1 0.20 lux
21 07/09/2026 04:34:00 MB-L5-01Mainboard Lantai 5 L5-AI-02 Analog Input 2 3.05 V
22 07/09/2026 04:34:00 MB-L3-01Mainboard Lantai 3 L3-SHT-01-RH SHT20 1 Humidity 47.10 %RH
23 07/09/2026 04:34:00 MB-L3-01Mainboard Lantai 3 L3-AI-02 Analog Input 2 3.12 V
24 07/09/2026 04:34:00 MB-L5-01Mainboard Lantai 5 L5-LUX-01 Illuminance / LUX 1 0.00 lux
25 07/09/2026 04:34:00 MB-L3-01Mainboard Lantai 3 L3-LUX-05 Illuminance / LUX 5 0.30 lux
26 07/09/2026 04:34:00 MB-L5-01Mainboard Lantai 5 L5-AI-04 Analog Input 4 3.05 V
27 07/09/2026 04:34:00 MB-L3-01Mainboard Lantai 3 L3-LUX-04 Illuminance / LUX 4 0.10 lux
28 07/09/2026 04:34:00 MB-L3-01Mainboard Lantai 3 L3-RAD-02 Radiation 2 0.00 W/m²
29 07/09/2026 04:34:00 MB-L5-01Mainboard Lantai 5 L5-SHT-01-T SHT20 1 Temperature 27.80 °C
30 07/09/2026 04:34:00 WS-MOD-01Weather Station Module WS-PRES Tekanan Udara 910.00 hPa
31 07/09/2026 04:34:00 MB-L5-01Mainboard Lantai 5 L5-SHT-01-RH SHT20 1 Humidity 47.10 %RH
32 07/09/2026 04:34:00 PWR-L5-02Power Meter L5 PZEM 02 PZEM-L5-02-POWER PZEM L5-02 Active Power 0.00 W
33 07/09/2026 04:34:00 MB-L5-01Mainboard Lantai 5 L5-AI-06 Analog Input 6 3.05 V
34 07/09/2026 04:34:00 MB-L3-01Mainboard Lantai 3 L3-SHT-01-T SHT20 1 Temperature 27.80 °C
35 07/09/2026 04:34:00 MB-L5-01Mainboard Lantai 5 L5-LUX-04 Illuminance / LUX 4 0.10 lux
36 07/09/2026 04:34:00 MB-L3-01Mainboard Lantai 3 L3-AI-04 Analog Input 4 3.12 V
37 07/09/2026 04:34:00 PWR-L5-01Power Meter L5 PZEM 01 PZEM-L5-01-FREQ PZEM L5-01 Frequency 50.00 Hz
38 07/09/2026 04:34:00 MB-L3-01Mainboard Lantai 3 L3-SHT-03-RH SHT20 3 Humidity 46.10 %RH
39 07/09/2026 04:34:00 PWR-L5-02Power Meter L5 PZEM 02 PZEM-L5-02-CURR PZEM L5-02 Current 0.00 A
40 07/09/2026 04:34:00 PWR-L5-01Power Meter L5 PZEM 01 PZEM-L5-01-CURR PZEM L5-01 Current 0.12 A
41 07/09/2026 04:34:00 WS-MOD-01Weather Station Module WS-RH Kelembapan Udara 82.50 %RH
42 07/09/2026 04:34:00 MB-L5-01Mainboard Lantai 5 L5-BGT-02 Black Globe Temperature 2 26.00 °C
43 07/09/2026 04:34:00 MB-L3-01Mainboard Lantai 3 L3-AI-06 Analog Input 6 3.12 V
44 07/09/2026 04:34:00 MB-L5-01Mainboard Lantai 5 L5-RAD-01 Radiation 1 1.00 W/m²
45 07/09/2026 04:34:00 MB-L5-01Mainboard Lantai 5 L5-SHT-02-T SHT20 2 Temperature 28.40 °C
46 07/09/2026 04:34:00 WS-MOD-01Weather Station Module WS-TEMP Suhu Udara 18.10 °C
47 07/09/2026 04:34:00 MB-L5-01Mainboard Lantai 5 L5-ST-02 Surface Temperature 2 21.80 °C
48 07/09/2026 04:34:00 PWR-L5-02Power Meter L5 PZEM 02 PZEM-L5-02-VOLT PZEM L5-02 Voltage 226.20 V
49 07/09/2026 04:34:00 MB-L5-01Mainboard Lantai 5 L5-RAD-02 Radiation 2 1.00 W/m²
50 07/09/2026 04:34:00 MB-L3-01Mainboard Lantai 3 L3-LUX-03 Illuminance / LUX 3 0.20 lux
51 07/09/2026 04:34:00 MB-L5-01Mainboard Lantai 5 L5-HFT-02 Heat Flow Temperature 2 21.50 °C
52 07/09/2026 04:34:00 MB-L3-01Mainboard Lantai 3 L3-LUX-02 Illuminance / LUX 2 0.20 lux
53 07/09/2026 04:34:00 MB-L3-01Mainboard Lantai 3 L3-RAD-01 Radiation 1 1.00 W/m²
54 07/09/2026 04:34:00 MB-L3-01Mainboard Lantai 3 L3-SHT-02-T SHT20 2 Temperature 28.20 °C
55 07/09/2026 04:34:00 MB-L5-01Mainboard Lantai 5 L5-AI-01 Analog Input 1 3.05 V
56 07/09/2026 04:34:00 MB-L3-01Mainboard Lantai 3 L3-AI-01 Analog Input 1 3.12 V
57 07/09/2026 04:34:00 PWR-L5-01Power Meter L5 PZEM 01 PZEM-L5-01-PF PZEM L5-01 Power Factor 0.38
58 07/09/2026 04:34:00 WS-MOD-01Weather Station Module WS-WIND Kecepatan Angin 7.82 m/s
59 07/09/2026 04:34:00 MB-L5-01Mainboard Lantai 5 L5-AI-03 Analog Input 3 3.05 V
60 07/09/2026 04:34:00 MB-L3-01Mainboard Lantai 3 L3-SHT-03-T SHT20 3 Temperature 28.30 °C
61 07/09/2026 04:34:00 PWR-L5-01Power Meter L5 PZEM 01 PZEM-L5-01-POWER PZEM L5-01 Active Power 10.20 W
62 07/09/2026 04:34:00 MB-L3-01Mainboard Lantai 3 L3-AI-03 Analog Input 3 3.12 V
63 07/09/2026 04:34:00 MB-L5-01Mainboard Lantai 5 L5-AI-05 Analog Input 5 3.05 V
64 07/09/2026 04:34:00 AC-REMOTE-01Remote AC AC-FAN AC Fan Speed 0.00 code
65 07/09/2026 04:34:00 MB-L5-01Mainboard Lantai 5 L5-SHT-02-RH SHT20 2 Humidity 46.10 %RH
66 07/09/2026 04:34:00 AC-REMOTE-01Remote AC AC-MODE AC Operating Mode 1.00 code
67 07/09/2026 04:34:00 MB-L3-01Mainboard Lantai 3 L3-AI-05 Analog Input 5 3.12 V
68 07/09/2026 04:33:00 PWR-L5-02Power Meter L5 PZEM 02 PZEM-L5-02-ENERGY PZEM L5-02 Energy 0.04 kWh
69 07/09/2026 04:33:00 MB-L3-01Mainboard Lantai 3 L3-LUX-01 Illuminance / LUX 1 0.20 lux
70 07/09/2026 04:33:00 MB-L5-01Mainboard Lantai 5 L5-AI-02 Analog Input 2 3.05 V
71 07/09/2026 04:33:00 MB-L3-01Mainboard Lantai 3 L3-SHT-01-RH SHT20 1 Humidity 47.00 %RH
72 07/09/2026 04:33:00 MB-L3-01Mainboard Lantai 3 L3-AI-02 Analog Input 2 3.12 V
73 07/09/2026 04:33:00 MB-L5-01Mainboard Lantai 5 L5-LUX-01 Illuminance / LUX 1 0.00 lux
74 07/09/2026 04:33:00 MB-L3-01Mainboard Lantai 3 L3-LUX-05 Illuminance / LUX 5 0.30 lux
75 07/09/2026 04:33:00 MB-L5-01Mainboard Lantai 5 L5-AI-04 Analog Input 4 3.05 V
76 07/09/2026 04:33:00 MB-L3-01Mainboard Lantai 3 L3-LUX-04 Illuminance / LUX 4 0.10 lux
77 07/09/2026 04:33:00 MB-L3-01Mainboard Lantai 3 L3-RAD-02 Radiation 2 0.00 W/m²
78 07/09/2026 04:33:00 MB-L5-01Mainboard Lantai 5 L5-SHT-01-T SHT20 1 Temperature 27.80 °C
79 07/09/2026 04:33:00 WS-MOD-01Weather Station Module WS-PRES Tekanan Udara 910.00 hPa
80 07/09/2026 04:33:00 MB-L5-01Mainboard Lantai 5 L5-SHT-01-RH SHT20 1 Humidity 47.20 %RH
81 07/09/2026 04:33:00 PWR-L5-02Power Meter L5 PZEM 02 PZEM-L5-02-POWER PZEM L5-02 Active Power 0.00 W
82 07/09/2026 04:33:00 MB-L5-01Mainboard Lantai 5 L5-AI-06 Analog Input 6 3.05 V
83 07/09/2026 04:33:00 MB-L3-01Mainboard Lantai 3 L3-SHT-01-T SHT20 1 Temperature 27.80 °C
84 07/09/2026 04:33:00 MB-L5-01Mainboard Lantai 5 L5-LUX-04 Illuminance / LUX 4 0.10 lux
85 07/09/2026 04:33:00 MB-L3-01Mainboard Lantai 3 L3-AI-04 Analog Input 4 3.12 V
86 07/09/2026 04:33:00 PWR-L5-01Power Meter L5 PZEM 01 PZEM-L5-01-FREQ PZEM L5-01 Frequency 50.00 Hz
87 07/09/2026 04:33:00 MB-L5-01Mainboard Lantai 5 L5-LUX-05 Illuminance / LUX 5 0.10 lux
88 07/09/2026 04:33:00 MB-L3-01Mainboard Lantai 3 L3-SHT-03-RH SHT20 3 Humidity 46.10 %RH
89 07/09/2026 04:33:00 PWR-L5-02Power Meter L5 PZEM 02 PZEM-L5-02-CURR PZEM L5-02 Current 0.00 A
90 07/09/2026 04:33:00 PWR-L5-01Power Meter L5 PZEM 01 PZEM-L5-01-CURR PZEM L5-01 Current 0.12 A
91 07/09/2026 04:33:00 WS-MOD-01Weather Station Module WS-RH Kelembapan Udara 82.70 %RH
92 07/09/2026 04:33:00 MB-L5-01Mainboard Lantai 5 L5-BGT-02 Black Globe Temperature 2 25.90 °C
93 07/09/2026 04:33:00 MB-L3-01Mainboard Lantai 3 L3-AI-06 Analog Input 6 3.12 V
94 07/09/2026 04:33:00 MB-L5-01Mainboard Lantai 5 L5-RAD-01 Radiation 1 1.00 W/m²
95 07/09/2026 04:33:00 MB-L5-01Mainboard Lantai 5 L5-SHT-02-T SHT20 2 Temperature 28.20 °C
96 07/09/2026 04:33:00 WS-MOD-01Weather Station Module WS-TEMP Suhu Udara 18.20 °C
97 07/09/2026 04:33:00 MB-L5-01Mainboard Lantai 5 L5-ST-02 Surface Temperature 2 21.70 °C
98 07/09/2026 04:33:00 PWR-L5-02Power Meter L5 PZEM 02 PZEM-L5-02-VOLT PZEM L5-02 Voltage 226.10 V
99 07/09/2026 04:33:00 MB-L5-01Mainboard Lantai 5 L5-RAD-02 Radiation 2 1.00 W/m²
100 07/09/2026 04:33:00 MB-L3-01Mainboard Lantai 3 L3-LUX-03 Illuminance / LUX 3 0.20 lux
Menampilkan maksimal 100 data per halaman
PAGE 1 NEXT →